TimePDT,TemperatureF,Dew PointF,Humidity,Sea Level PressureIn,VisibilityMPH,Wind Direction,Wind SpeedMPH,Gust SpeedMPH,PrecipitationIn,Events,Conditions,WindDirDegrees,DateUTC
12:53 AM,73.9,37.0,26,29.71,10.0,WSW,6.9,-,N/A,,Clear,250,2013-04-29 07:53:00
1:53 AM,71.1,39.0,31,29.70,10.0,West,6.9,-,N/A,,Clear,260,2013-04-29 08:53:00
2:53 AM,69.1,37.0,31,29.69,10.0,West,3.5,-,N/A,,Clear,270,2013-04-29 09:53:00
3:53 AM,68.0,37.0,32,29.69,10.0,WNW,3.5,-,N/A,,Clear,290,2013-04-29 10:53:00
4:53 AM,72.0,33.1,24,29.69,10.0,West,9.2,-,N/A,,Clear,260,2013-04-29 11:53:00
5:53 AM,71.1,35.1,27,29.69,10.0,West,5.8,-,N/A,,Clear,260,2013-04-29 12:53:00
6:53 AM,69.1,37.9,32,29.70,10.0,West,3.5,-,N/A,,Clear,260,2013-04-29 13:53:00
7:53 AM,75.9,46.0,35,29.71,10.0,West,3.5,-,N/A,,Clear,270,2013-04-29 14:53:00
8:53 AM,86.0,42.1,21,29.71,10.0,West,3.5,-,N/A,,Clear,280,2013-04-29 15:53:00
9:53 AM,91.9,39.0,16,29.71,3.0,Calm,Calm,-,N/A,,Haze,0,2013-04-29 16:53:00
10:06 AM,93.2,37.4,14,29.71,2.5,Calm,Calm,-,N/A,,Haze,0,2013-04-29 17:06:00
10:15 AM,93.2,33.8,12,29.71,6.0,Calm,Calm,-,N/A,,Haze,0,2013-04-29 17:15:00
10:53 AM,95.0,27.0,9,29.71,10.0,SSW,3.5,-,N/A,,Clear,210,2013-04-29 17:53:00
11:53 AM,98.1,26.1,8,29.70,10.0,West,3.5,-,N/A,,Clear,260,2013-04-29 18:53:00
12:53 PM,100.0,23.0,6,29.68,10.0,Variable,3.5,-,N/A,,Clear,0,2013-04-29 19:53:00
1:53 PM,102.0,19.0,5,29.65,10.0,Variable,3.5,-,N/A,,Clear,0,2013-04-29 20:53:00
2:53 PM,104.0,14.0,4,29.62,10.0,Variable,3.5,-,N/A,,Clear,0,2013-04-29 21:53:00
3:53 PM,104.0,25.0,6,29.60,10.0,WSW,3.5,-,N/A,,Clear,240,2013-04-29 22:53:00
4:53 PM,102.9,27.0,7,29.58,10.0,WSW,6.9,-,N/A,,Clear,240,2013-04-29 23:53:00
5:53 PM,97.0,37.9,13,29.57,10.0,WSW,12.7,-,N/A,,Clear,250,2013-04-30 00:53:00
6:53 PM,91.9,33.1,12,29.57,10.0,West,15.0,-,N/A,,Clear,260,2013-04-30 01:53:00
7:53 PM,89.1,28.9,12,29.58,10.0,West,16.1,-,N/A,,Clear,260,2013-04-30 02:53:00
8:53 PM,84.9,33.1,16,29.60,10.0,WSW,15.0,-,N/A,,Clear,250,2013-04-30 03:53:00
9:53 PM,82.9,28.9,14,29.62,10.0,West,13.8,-,N/A,,Clear,260,2013-04-30 04:53:00
10:53 PM,82.0,28.9,14,29.62,10.0,West,16.1,-,N/A,,Clear,270,2013-04-30 05:53:00
11:53 PM,82.0,21.0,10,29.63,10.0,West,18.4,24.2,N/A,,Clear,270,2013-04-30 06:53:00